Regional Weather Roundup
Issued by NWS

Home | Current Version | Previous Version | Text Only | Print | Product List | Glossary On
Versions: 1 2 3 4 5 6 7 8 9 10 11 12 13 14 15 16 17 18 19 20 21 22 23 24 25 26 27 28 29 30 31 32 33 34 35 36 37 38 39 40 41 42 43 44 45 46 47 48 49 50
000
ASUS46 KLOX 290713
RWRCA

SOUTHERN CALIFORNIA WEATHER ROUNDUP
NATIONAL WEATHER SERVICE OXNARD CALIFORNIA
1200 AM PDT SAT AUG 29 2015

NOTE: "FAIR" INDICATES FEW OR NO CLOUDS BELOW 12,000 FEET WITH NO
SIGNIFICANT WEATHER AND/OR OBSTRUCTIONS TO VISIBILITY.

  -  STATIONS PRECEEDED BY AN ASTERISK (*) ARE NOT NWS OR FAA
     STATIONS AND ARE NOT SUBJECT TO NWS AND FAA QUALITY CONTROL.

CAZ041-042-087-290800-
LA AND ORANGE COUNTY COASTAL AREAS


CITY           SKY/WX    TMP DP  RH WIND       PRES   REMARKS
L.A. DOWNTOWN  CLEAR     75  64  68 CALM      29.85F
L.A. AIRPORT   CLEAR     74  66  76 SW3       29.86S
LONG BEACH     CLEAR     75  68  78 SE5       29.85F

CITY           SKY/WX    TMP DP  RH WIND       PRES   REMARKS
AVALON           N/A     70 N/A N/A S2          N/A
FULLERTON      CLEAR     79  65  62 SE5       29.85S
*GETTY CENTER    N/A     72  63  73 NE6         N/A
HAWTHORNE      CLEAR     76  65  68 CALM      29.85F
*LEO CARRILLO    N/A     71  66  83 CALM        N/A
*LOS ALAMITOS  FAIR      74  68  83 SE3       29.85F
*REDONDO BEACH   N/A     74  65  73 CALM      29.85F
SANTA ANA      CLEAR     76  61  59 S3        29.86S
STA MONICA APT CLEAR     74  68  81 CALM      29.86S
*UCLA            N/A     72  63  73 CALM      29.84S

$$

CAZ547-548-048-290800-
LA COUNTY VALLEYS AND INLAND EMPIRE


CITY           SKY/WX    TMP DP  RH WIND       PRES   REMARKS
BURBANK        CLEAR     79  62  56 E5        29.87S
VAN NUYS       CLEAR     79  62  56 E3        29.87S

CITY           SKY/WX    TMP DP  RH WIND       PRES   REMARKS
CORONA AIRPORT SUNNY     75  59  57 SW3       29.88S
*CHATSWORTH      N/A     79  62  54 N3        29.85R
CHINO          CLEAR     77  58  51 W5        29.89S
MARCH AFB      CLEAR     78  51  38 CALM      29.92S
*NORTHRIDGE      N/A     79  59  50 E2          N/A
ONTARIO        CLEAR     82  52  35 CALM      29.89S
*PASADENA        N/A     79  64  61 CALM        N/A
RIVERSIDE      CLEAR     82  54  37 CALM      29.89S
SAN BERNARDINO NOT AVBL
*SAN GABRIEL     N/A     79  62  56 CALM      29.91F
*SAN RAFAEL HI   N/A     74  53  47 SW8         N/A
*SAUGUS          N/A     81  56  41 W2          N/A
*WHITEMAN AP   NOT AVBL
*WHITTIER HILL   N/A     75  62  64 E5          N/A
*WOODLAND HILL   N/A     77  59  53 SE1         N/A

$$

CAZ054-055-290800-
LA AND SAN BERNARDINO COUNTY MOUNTAINS


CITY           SKY/WX    TMP DP  RH WIND       PRES   REMARKS
*ACTON           N/A     77  40  27 CALM        N/A
*BIG BEAR AIRP SUNNY     59  43  55 CALM      30.30S
*BIG PINES       N/A     67  46  45 CALM        N/A
SANDBERG       CLEAR     77  42  28 N14       30.14F

$$

CAZ028-029-059-060-099-290800-
ANTELOPE VALLEY AND SURROUNDING AREAS


CITY           SKY/WX    TMP DP  RH WIND       PRES   REMARKS
LANCASTER      CLEAR     82  46  28 W12       29.96S
PALMDALE       CLEAR     80  45  28 S7        29.98S
*POPPY PARK      N/A     81  43  26 W12G49      N/A

CITY           SKY/WX    TMP DP  RH WIND       PRES   REMARKS
29 PALMS       CLEAR     89  49  25 SW9       29.96S
BARSTOW/DAGGET CLEAR     90  44  20 W9        29.90R
BISHOP         CLOUDY    72  43  35 NW6       30.00S HAZE
CHINA LAKE     CLEAR     85  39  19 SW8       29.90S
EDWARDS AFB    CLEAR     79  42  26 SW8       29.92S
MOJAVE         CLEAR     86  43  22 W26       29.96S
NEEDLES        CLEAR    100  51  19 W12       29.77S HX  97
VICTORVILLE    CLEAR     81  45  28 CALM      30.00S

$$

CAZ039-040-290800-
VENTURA AND SANTA BARBARA COUNTY COAST


CITY           SKY/WX    TMP DP  RH WIND       PRES   REMARKS
CAMARILLO      CLEAR     72  63  73 SW3       29.85R
NWS OXNARD       N/A     71  64  80 CALM      29.84R
OXNARD AIRPORT CLEAR     71  66  84 W7        29.85R
*POINT MUGU    CLEAR     70  64  81 W5        29.85R
SBA APT/GOLETA CLEAR     72  67  84 E5        29.82S
*SANTA BARBARA   N/A     74  65  73 CALM      29.90S
*VENTURA         N/A     71  60  67 CALM      29.47R

$$

CAZ044-045-290800-
VENTURA COUNTY VALLEYS


CITY           SKY/WX    TMP DP  RH WIND       PRES   REMARKS
*SIMI VALLEY     N/A     77  56  47 NE1       29.78S
*OJAI            N/A     67  59  73 CALM      29.78R
*FILLMORE        N/A     70  59  68 CALM      29.75S

$$

CAZ053-290800-
VENTURA COUNTY MOUNTAINS


CITY           SKY/WX    TMP DP  RH WIND       PRES   REMARKS
*LOCKWOOD VLY    N/A     59  37  44 MISG        N/A
*ROSE VALLEY     N/A     63  45  51 MISG        N/A

$$

CAZ034-035-036-290800-
CENTRAL COAST AND SANTA YNEZ VALLEY


CITY           SKY/WX    TMP DP  RH WIND       PRES   REMARKS
SAN LUIS OBISP PTCLDY    62  59  90 NW6       29.93F
SANTA MARIA    FOG       63  63 100 CALM      29.94F VSB 1/4

CITY           SKY/WX    TMP DP  RH WIND       PRES   REMARKS
*CAL POLY SLO    N/A    N/A N/A N/A SW3G12      N/A
*LOMPOC        CLEAR     61  55  82 SW5       29.95R
*PISMO BEACH     N/A     63  61  94 CALM      29.93F
*SANTA YNEZ    FAIR      63  57  82 CALM      29.94S

$$

CAZ037-038-051-290800-
SAN LUIS OBISPO COUNTY INTERIOR AND CUYAMA VALLEY


CITY           SKY/WX    TMP DP  RH WIND       PRES   REMARKS
*CUYAMA          N/A     74  46  36 SW1       29.85R
PASO ROBLES    PTCLDY    73  56  54 NW10      29.93R

$$

CAZ032-033-061-290800-
SOUTHERN DESERTS


CITY           SKY/WX    TMP DP  RH WIND       PRES   REMARKS
BLYTHE         CLEAR     99  59  26 W12       29.74S HX  99
IMPERIAL       CLEAR     93  54  26 W7        29.72S HX  91
PALM SPRINGS   CLEAR    100  48  17 NW7       29.77F HX  96
THERMAL        CLEAR     98  46  17 NW10      29.70S HX  94

$$

ELSEWHERE ACROSS THE WESTERN UNITED STATES AND MEXICO


CITY           SKY/WX    TMP DP  RH WIND       PRES   REMARKS
DEATH VALLEY,    N/A    100  46  15 CALM        N/A  HX  96
DENVER, CO     PTCLDY    64  38  38 SW9       30.29S
GRAND CANYON,  CLEAR     51  42  71 CALM      30.31R
HONOLULU, HI   PTCLDY    82  72  69 CALM      29.90R
KAHULUI, MAUI  PTCLDY    81  72  74 NE13      29.91R
LAKE TAHOE, CA PTCLDY    67  40  37 S8        30.18S
LAS VEGAS, NV  PTCLDY    93  52  24 SW5       29.83S HX  90
MAMMOTH LAKES, FAIR      66  36  32 NW3       30.26S
MEXICO CITY, M MOCLDY    61  50  67 N6        30.36F
PHOENIX, AZ    PTCLDY    96  61  31 CALM      29.79S HX  96
PORTLAND, OR   CLOUDY    70  61  73 W3        29.62F
RENO, NV       MOCLDY    75  43  31 E3        30.01F
SALT LAKE CITY MOCLDY    77  39  25 SE10      30.04F
SAN DIEGO, CA  PTCLDY    76  70  82 S6        29.89S
SAN FRANCISCO, CLOUDY    65  62  90 W9        29.91F
SAN JOSE, CA   PTCLDY    67  64  90 NW7       29.92R
SEATTLE, WA    CLOUDY    66  59  78 NE9       29.69F
TIJUANA, MEX   CLEAR     73  66  78 N6        29.91S

$$

STATION/POSITION TIME  TEMP    WIND        PRES    VSBY  WAVE
                       AIR SEA DIR/SP/G                  HT/PER
                 (UTC) (F)     (DEG/KT/KT) (MB)    (MI)  (FT/S)
POINT ARGUELLO B NOT AVBL
WEST SANTA BARBA 0650   65 66  310/ 19/ 21 1010.9R         5/16
POINT CONCEPTION NOT AVBL
EAST SANTA BARBA 0600   73 71  260/ 16/ 19 1010.0F
SANTA MONICA BAY 0650   73 74  290/  4/  4 1010.7R         3/15



USA.gov is the U.S. government's official web portal to all federal, state and local government web resources and services.